Location: Old Broadwell Mill Observatory
(33.8015°N, 85.8137°W)
Time: 02:49:59
(UTC-05:00)

Amateur Radio Satellites - All Passes

Search period start: 27 May 2015 02:19
Search period end: 28 May 2015 02:19
Location: Old Broadwell Mill Observatory, 33.8015°N, 85.8137°W

Satellite Date Start Highest point End Downlink Frequencies (MHz)
Time Altitude Azimuth
BEESAT 2 27 May 02:20:21 02:22:29 14° 48° (NE) 02:24:46 435.950
Gurwin Techsat 1B 27 May 02:31:20 02:36:00 31° 96° (E) 02:40:44 435.225
STARS 27 May 02:36:34 02:40:28 31° 72° (ENE) 02:44:26 437.465
O/OREOS (USA 219) 27 May 02:38:27 02:42:21 29° 256° (WSW) 02:46:11 437.305
PCSat 27 May 02:44:38 02:45:54 11° 315° (NW) 02:46:50 145.827
VERMONT LUNAR 27 May 02:46:29 02:49:29 35° 345° (NNW) 02:52:30 437.305
ITUPSAT 1 27 May 02:58:25 03:01:15 15° 268° (W) 03:03:51 437.325
BEESAT 27 May 03:07:12 03:09:06 12° 270° (W) 03:10:40 436.000
KKS-1 27 May 03:08:03 03:12:29 64° 259° (W) 03:16:57 437.445
BEESAT 3 27 May 03:08:05 03:12:06 56° 59° (ENE) 03:16:02 437.485
Cosmos 2499 27 May 03:09:39 03:16:30 54° 268° (W) 03:23:27 435.465 / 435.565
PHONESAT 2.4 27 May 03:13:59 03:17:28 69° 338° (NNW) 03:20:56 2401.200-2431.200
AO-7 27 May 03:19:10 03:23:57 17° 91° (E) 03:29:18 29.400- 29.500
Oscar 19 27 May 03:20:08 03:24:03 22° 291° (WNW) 03:27:48 437.125/150
ITAMSAT 1 27 May 03:33:03 03:38:11 58° 286° (WNW) 03:43:17 435.822/435.867
SO-50 27 May 03:36:43 03:41:08 42° 304° (NW) 03:45:43 436.795
AIST 2 27 May 03:46:48 03:50:36 32° 55° (NE) 03:54:21 435.215
HORYU 2 27 May 03:56:10 04:00:12 35° 98° (E) 04:04:15 437.375
BEESAT 2 27 May 03:56:57 04:00:52 46° 245° (WSW) 04:04:43 435.950
Gurwin Techsat 1B 27 May 04:11:27 04:15:53 27° 290° (WNW) 04:20:13 435.225
STARS 27 May 04:13:46 04:17:00 19° 266° (W) 04:20:04 437.465
JAS-2 27 May 04:16:21 04:21:24 54° 100° (E) 04:26:44 435.910
VERMONT LUNAR 27 May 04:24:31 04:27:11 23° 1° (N) 04:29:50 437.305
MOZHAYETS 4 27 May 04:37:02 04:41:37 84° 77° (ENE) 04:46:12
PHONESAT 2.4 27 May 04:52:53 04:55:55 27° 353° (N) 04:58:57 2401.200-2431.200
AO-7 27 May 05:09:18 05:17:43 82° 288° (WNW) 05:26:05 29.400- 29.500
AIST 2 27 May 05:26:02 05:28:57 18° 249° (WSW) 05:31:43 435.215
HORYU 2 27 May 05:33:38 05:36:36 17° 291° (WNW) 05:39:25 437.375
Cosmos 2491 27 May 05:34:25 05:41:19 26° 70° (ENE) 05:48:30 435.465 / 435.565
CUTE-I 27 May 05:48:08 05:50:36 14° 90° (E) 05:53:24 437.470
STRAND 1 27 May 06:00:18 06:03:57 21° 68° (ENE) 06:07:46 437.568
PRISM 27 May 06:01:43 06:04:37 20° 70° (ENE) 06:07:38 437.425
VERMONT LUNAR 27 May 06:01:44 06:04:49 43° 19° (NNE) 06:07:53 437.305
JAS-2 27 May 06:03:24 06:06:14 14° 293° (WNW) 06:08:50 435.910
Cubesat XI-IV 27 May 06:07:26 06:11:31 23° 94° (E) 06:15:45 437.490
ISS 27 May 06:15:58 06:19:06 42° 39° (NE) 06:22:13 145.825
CUBESAT XI-V 27 May 06:16:00 06:20:34 73° 77° (ENE) 06:25:11 437.345
M-CUBED/EXP-1 PRIME 27 May 06:20:13 06:23:27 22° 68° (ENE) 06:26:35 437.505
YUBILEINY 27 May 06:21:45 06:28:18 25° 85° (E) 06:35:11 435.215
AUBIESAT-1 27 May 06:28:12 06:31:28 23° 69° (ENE) 06:34:40 437.475
PHONESAT 2.4 27 May 06:31:27 06:34:35 31° 10° (N) 06:37:43 2401.200-2431.200
AO-7 27 May 07:04:45 07:09:27 16° 304° (NW) 07:13:39 29.400- 29.500
CUTE-I 27 May 07:25:51 07:31:08 60° 286° (WNW) 07:36:25 437.470
Cosmos 2491 27 May 07:30:10 07:38:47 58° 268° (W) 07:47:16 435.465 / 435.565
RS-15 27 May 07:31:20 07:39:56 30° 106° (ESE) 07:49:02 29.354- 29.394
PRISM 27 May 07:36:29 07:39:56 25° 264° (W) 07:43:20 437.425
STRAND 1 27 May 07:38:13 07:42:56 38° 262° (W) 07:47:39 437.568
VERMONT LUNAR 27 May 07:39:04 07:41:57 31° 213° (SSW) 07:44:49 437.305
Cubesat XI-IV 27 May 07:46:48 07:51:44 37° 289° (WNW) 07:56:37 437.490
BRITE-PL 27 May 07:53:29 07:57:54 25° 92° (E) 08:02:16 437.365/2234.400
ISS 27 May 07:53:33 07:55:16 13° 232° (SW) 07:56:52 145.825
M-CUBED/EXP-1 PRIME 27 May 07:54:31 07:58:11 26° 258° (WSW) 08:01:33 437.505
GOMX 1 27 May 07:56:19 07:59:03 15° 89° (E) 08:01:59 467.674
AIST 1 27 May 08:00:16 08:04:40 89° 82° (E) 08:09:05
AUBIESAT-1 27 May 08:02:40 08:06:10 23° 258° (WSW) 08:09:23 437.475
PHONESAT 2.4 27 May 08:09:27 08:12:55 79° 207° (SSW) 08:16:22 2401.200-2431.200
YUBILEINY 27 May 08:16:01 08:24:38 58° 281° (W) 08:33:12 435.215
AAUSAT CUBESAT 2 27 May 08:38:49 08:39:17 10° 90° (E) 08:40:02 437.432
DOVE 4 27 May 08:54:27 08:59:08 38° 96° (E) 09:03:34 437.250
JUGNU 27 May 09:00:59 09:02:12 11° 164° (SSE) 09:03:34 437.505
HO-68 27 May 09:17:56 09:25:03 67° 103° (ESE) 09:32:09 435.675
ANTELSAT 27 May 09:20:11 09:21:40 12° 67° (ENE) 09:23:26 437.575/2403.000
Cosmos 2504 27 May 09:20:25 09:27:55 38° 90° (E) 09:35:07 435.465 / 435.565
CANX-2 27 May 09:20:42 09:24:55 82° 101° (E) 09:29:07 2200.000
CUBEBUG 2 27 May 09:22:11 09:24:32 15° 91° (E) 09:27:03 437.445
CUTE 1.7 + AOD 2 27 May 09:24:12 09:28:26 81° 102° (ESE) 09:32:38 437.475
BRITE-PL 27 May 09:31:22 09:36:30 37° 288° (WNW) 09:41:21 437.365/2234.400
GOMX 1 27 May 09:32:26 09:37:38 53° 286° (WNW) 09:42:30 467.674
Oscar 11 27 May 09:33:39 09:37:01 23° 95° (E) 09:40:28 145.826/435.025
RS-15 27 May 09:40:50 09:51:37 64° 304° (WNW) 10:02:38 29.354- 29.394
SEEDS 27 May 09:46:27 09:50:36 65° 284° (WNW) 09:54:43 437.485
PCSat 27 May 09:48:11 09:53:08 36° 57° (ENE) 09:58:06 145.827
PHONESAT 2.4 27 May 09:49:07 09:50:41 12° 218° (SW) 09:52:08 2401.200-2431.200
TIGRISAT 27 May 09:50:26 09:54:11 25° 71° (ENE) 09:58:01 435.000
COMPASS 1 27 May 09:59:17 10:03:21 57° 284° (WNW) 10:07:24 437.405
UWE-3 27 May 10:07:31 10:11:37 41° 98° (E) 10:15:38 435.000/436.395/437.385
CINEMA 3 27 May 10:07:36 10:12:17 70° 284° (WNW) 10:16:42 145.822/145.860
QB50P1 27 May 10:10:09 10:12:51 17° 70° (ENE) 10:15:43 145.935-145.965
UNISAT 6 27 May 10:10:16 10:14:41 43° 74° (ENE) 10:19:07 437.425
AAUSAT CUBESAT 2 27 May 10:11:14 10:15:13 47° 285° (WNW) 10:19:11 437.432
POLYITAN 1 27 May 10:12:07 10:15:00 18° 70° (ENE) 10:18:03 437.675
FUNcube-1 27 May 10:16:47 10:20:48 39° 98° (E) 10:24:44 145.935
DOVE 4 27 May 10:32:55 10:36:35 20° 292° (WNW) 10:39:58 437.250
DELFI C3 27 May 10:36:18 10:40:19 80° 283° (WNW) 10:44:19 145.870
NANOSAT C BR1 27 May 10:40:01 10:43:56 37° 74° (ENE) 10:47:56 145.865
JUGNU 27 May 10:46:36 10:50:34 18° 173° (S) 10:54:33 437.505
QB50P2 27 May 10:48:04 10:52:12 49° 75° (ENE) 10:56:22 145.880/145.840
HUMSAT D 27 May 10:48:52 10:52:46 41° 98° (E) 10:56:40 437.325/437.525
ANTELSAT 27 May 10:53:21 10:58:01 61° 259° (W) 11:02:39 437.575/2403.000
ZACube-1 27 May 10:57:18 11:01:34 61° 285° (WNW) 11:05:43 437.345
CUBEBUG 2 27 May 10:57:22 11:01:28 37° 287° (WNW) 11:05:24 437.445
UKube-1 27 May 10:58:21 11:02:35 52° 100° (E) 11:06:50 .
POPSAT HIP 1 27 May 11:00:07 11:04:22 68° 76° (ENE) 11:08:39 437.405
DUCHIFAT 1 27 May 11:01:46 11:06:00 70° 76° (ENE) 11:10:16 145.980
HO-68 27 May 11:07:07 11:12:14 21° 297° (WNW) 11:17:03 435.675
DX 1 27 May 11:07:30 11:11:55 74° 103° (ESE) 11:16:17 434.975-435.025
Oscar 11 27 May 11:09:39 11:13:08 24° 289° (WNW) 11:16:33 145.826/435.025
Cosmos 2504 27 May 11:13:36 11:21:18 37° 284° (WNW) 11:28:25 435.465 / 435.565
CUSAT 1 27 May 11:19:19 11:21:55 13° 81° (E) 11:25:17 437.405
CUBEBUG 1 27 May 11:20:50 11:24:21 23° 95° (E) 11:27:58 437.445
VELOX 1 27 May 11:23:00 11:27:23 51° 100° (E) 11:31:44 145.980
BUGSAT 1 27 May 11:23:21 11:27:28 85° 79° (E) 11:31:41 437.445
TIGRISAT 27 May 11:26:49 11:30:51 27° 265° (W) 11:34:45 435.000
ESTCUBE 1 27 May 11:27:26 11:31:30 33° 97° (E) 11:35:37 437.505/2401.250
PCSat 27 May 11:31:57 11:36:24 26° 252° (WSW) 11:40:42 145.827
50 SAT 27 May 11:40:12 11:44:04 78° 283° (WNW) 11:47:54 437.505
QB50P1 27 May 11:44:36 11:48:29 33° 263° (W) 11:52:22 145.935-145.965
UWE-3 27 May 11:45:28 11:47:49 14° 292° (WNW) 11:49:56 435.000/436.395/437.385
POLYITAN 1 27 May 11:46:53 11:50:43 31° 263° (W) 11:54:32 437.675
UNISAT 6 27 May 11:48:50 11:51:41 15° 268° (W) 11:54:20 437.425
FUNcube-1 27 May 11:54:27 11:56:48 14° 291° (WNW) 11:58:57 145.935
AISAT 27 May 11:54:44 11:59:12 63° 285° (WNW) 12:03:36 437.250
SPROUT 27 May 11:58:58 12:01:33 16° 92° (E) 12:04:20 437.525
RS-15 27 May 11:59:48 12:07:00 18° 331° (NNW) 12:13:54 29.354- 29.394
SRMSAT 27 May 12:04:42 12:08:21 17° 171° (S) 12:12:04 437.500
SO-50 27 May 12:11:35 12:16:30 60° 59° (ENE) 12:21:19 436.795
NANOSAT C BR1 27 May 12:17:31 12:19:58 14° 268° (W) 12:22:13 145.865
TISAT 1 27 May 12:20:20 12:23:27 20° 94° (E) 12:26:39 437.305
HUMSAT D 27 May 12:26:15 12:28:12 13° 291° (WNW) 12:29:55 437.325/437.525
QB50P2 27 May 12:27:10 12:28:26 11° 270° (W) 12:29:25 145.880/145.840
DANDE 27 May 12:28:45 12:34:55 38° 88° (E) 12:42:23 436.750
JUGNU 27 May 12:34:43 12:38:57 20° 183° (S) 12:43:10 437.505
UKube-1 27 May 12:36:39 12:38:20 12° 293° (WNW) 12:39:45 .
GONETS M04 27 May 12:44:44 12:53:05 51° 90° (E) 13:01:33
Oscar 19 27 May 12:53:09 12:57:52 37° 72° (ENE) 13:02:39 437.125/150
CUSAT 1 27 May 12:56:16 13:03:20 81° 96° (E) 13:11:37 437.405
CUBEBUG 1 27 May 12:56:58 13:00:40 25° 289° (WNW) 13:04:16 437.445
VELOX 1 27 May 13:01:33 13:03:32 12° 293° (WNW) 13:05:17 145.980
ESTCUBE 1 27 May 13:04:54 13:08:10 19° 290° (WNW) 13:11:17 437.505/2401.250
ITAMSAT 1 27 May 13:10:23 13:13:06 15° 66° (ENE) 13:16:05 435.822/435.867
ITUPSAT 1 27 May 13:24:20 13:27:07 16° 92° (E) 13:30:09 437.325
BEESAT 27 May 13:31:17 13:34:38 20° 94° (E) 13:38:09 436.000
SPROUT 27 May 13:33:50 13:37:47 34° 287° (WNW) 13:41:40 437.525
SWISSCUBE 27 May 13:39:21 13:43:20 26° 96° (E) 13:47:24 437.505
Gurwin Techsat 1B 27 May 13:48:38 13:53:21 34° 71° (ENE) 13:58:08 435.225
Cosmos 2499 27 May 13:50:17 13:55:49 21° 87° (E) 14:01:28 435.465 / 435.565
SRMSAT 27 May 13:52:37 13:56:53 21° 180° (S) 14:01:09 437.500
SO-50 27 May 13:54:15 13:56:36 13° 252° (WSW) 13:58:38 436.795
TISAT 1 27 May 13:55:36 13:59:13 27° 288° (WNW) 14:02:46 437.305
DANDE 27 May 14:11:39 14:18:09 38° 289° (WNW) 14:25:41 436.750
AO-7 27 May 14:14:52 14:19:56 19° 58° (ENE) 14:25:25 29.400- 29.500
RS-15 27 May 14:23:42 14:26:15 11° 8° (N) 14:29:03 29.354- 29.394
JUGNU 27 May 14:24:12 14:27:18 14° 192° (SSW) 14:30:20 437.505
JAS-2 27 May 14:26:09 14:30:03 17° 68° (ENE) 14:34:01 435.910
Oscar 19 27 May 14:33:21 14:37:21 21° 266° (W) 14:41:12 437.125/150
CUSAT 1 27 May 14:41:58 14:47:12 19° 297° (WNW) 14:52:25 437.405
GONETS M04 27 May 14:42:38 14:50:17 31° 288° (WNW) 14:57:41
ITAMSAT 1 27 May 14:47:08 14:52:11 56° 259° (W) 14:57:17 435.822/435.867
HORYU 2 27 May 14:51:15 14:54:34 21° 70° (ENE) 14:57:59 437.375
ITUPSAT 1 27 May 15:00:44 15:05:16 43° 287° (WNW) 15:09:45 437.325
KKS-1 27 May 15:03:23 15:07:23 32° 97° (E) 15:11:24 437.445
O/OREOS (USA 219) 27 May 15:07:03 15:11:24 48° 106° (ESE) 15:15:45 437.305
BEESAT 27 May 15:08:15 15:12:35 35° 288° (WNW) 15:16:52 436.000
SWISSCUBE 27 May 15:17:09 15:21:08 26° 289° (WNW) 15:25:01 437.505
Gurwin Techsat 1B 27 May 15:29:06 15:33:24 24° 266° (W) 15:37:35 435.225
Cosmos 2499 27 May 15:40:23 15:48:33 62° 279° (W) 15:56:06 435.465 / 435.565
SRMSAT 27 May 15:41:49 15:45:25 16° 190° (S) 15:48:57 437.500
AO-7 27 May 16:03:33 16:11:51 85° 254° (WSW) 16:20:14 29.400- 29.500
STARS 27 May 16:05:54 16:10:20 75° 284° (WNW) 16:14:42 437.465
JAS-2 27 May 16:08:00 16:14:52 66° 258° (WSW) 16:20:56 435.910
HORYU 2 27 May 16:27:07 16:31:04 29° 263° (W) 16:34:56 437.375
RS-15 27 May 16:34:50 16:44:24 30° 41° (NE) 16:54:38 29.354- 29.394
MOZHAYETS 4 27 May 16:36:36 16:40:24 26° 95° (E) 16:44:17
KKS-1 27 May 16:40:37 16:43:49 19° 291° (WNW) 16:46:52 437.445
O/OREOS (USA 219) 27 May 16:48:47 16:51:10 14° 302° (WNW) 16:53:20 437.305
BEESAT 3 27 May 16:57:36 17:00:59 26° 112° (ESE) 17:04:28 437.485
CUTE-I 27 May 17:06:18 17:09:24 16° 66° (ENE) 17:12:44 437.470
Cubesat XI-IV 27 May 17:25:48 17:30:04 26° 69° (ENE) 17:34:27 437.490
AIST 2 27 May 17:41:58 17:44:45 18° 111° (ESE) 17:47:43 435.215
BEESAT 2 27 May 17:46:28 17:50:33 84° 118° (ESE) 17:54:42 435.950
AO-7 27 May 18:02:01 18:05:54 13° 271° (W) 18:09:03 29.400- 29.500
MOZHAYETS 4 27 May 18:13:51 18:17:32 24° 289° (WNW) 18:21:07
CUBESAT XI-V 27 May 18:17:09 18:20:58 25° 95° (E) 18:24:52 437.345
Cosmos 2491 27 May 18:30:31 18:38:00 34° 87° (E) 18:45:44 435.465 / 435.565
YUBILEINY 27 May 18:30:54 18:39:26 60° 80° (E) 18:48:01 435.215
BEESAT 3 27 May 18:35:42 18:38:57 22° 307° (NW) 18:42:09 437.485
CUTE-I 27 May 18:43:55 18:49:05 53° 260° (W) 18:54:17 437.470
RS-15 27 May 18:46:31 18:58:18 81° 243° (WSW) 19:10:29 29.354- 29.394
BRITE-PL 27 May 19:00:45 19:04:06 18° 67° (ENE) 19:07:48 437.365/2234.400
GOMX 1 27 May 19:01:42 19:03:10 11° 65° (ENE) 19:05:00 467.674
Cubesat XI-IV 27 May 19:05:17 19:10:03 32° 263° (W) 19:14:46 437.490
AIST 2 27 May 19:19:13 19:23:08 34° 304° (NW) 19:27:02 435.215
PRISM 27 May 19:21:47 19:25:52 55° 100° (E) 19:29:58 437.425
M-CUBED/EXP-1 PRIME 27 May 19:39:17 19:42:00 24° 102° (ESE) 19:44:48 437.505
HO-68 27 May 19:42:41 19:48:53 34° 67° (ENE) 19:55:12 435.675
AUBIESAT-1 27 May 19:46:40 19:49:26 25° 102° (ESE) 19:52:19 437.475
STRAND 1 27 May 19:52:10 19:57:20 83° 286° (WNW) 20:02:29 437.568
CUBESAT XI-V 27 May 19:54:23 19:58:21 27° 288° (WNW) 20:02:14 437.345
DOVE 4 27 May 19:55:47 19:59:58 27° 70° (ENE) 20:04:25 437.250
CANX-2 27 May 20:09:53 20:13:44 34° 74° (ENE) 20:17:38 2200.000
CUTE 1.7 + AOD 2 27 May 20:13:20 20:17:10 34° 74° (ENE) 20:21:02 437.475
AIST 1 27 May 20:25:33 20:29:44 63° 95° (E) 20:33:59
Cosmos 2491 27 May 20:26:20 20:34:41 45° 284° (WNW) 20:42:59 435.465 / 435.565
Oscar 11 27 May 20:26:37 20:28:05 12° 68° (ENE) 20:29:46 145.826/435.025
YUBILEINY 27 May 20:29:01 20:35:44 24° 275° (W) 20:42:04 435.215
SEEDS 27 May 20:34:26 20:38:30 50° 75° (ENE) 20:42:36 437.485
GOMX 1 27 May 20:35:31 20:40:35 78° 258° (WSW) 20:46:00 467.674
BRITE-PL 27 May 20:37:22 20:42:12 47° 263° (W) 20:47:22 437.365/2234.400
COMPASS 1 27 May 20:46:20 20:50:26 55° 76° (ENE) 20:54:32 437.405
AAUSAT CUBESAT 2 27 May 20:57:44 21:01:52 65° 76° (ENE) 21:06:00 437.432
PRISM 27 May 21:00:30 21:00:54 10° 293° (WNW) 21:01:02 437.425
UWE-3 27 May 21:00:56 21:04:35 24° 71° (ENE) 21:08:20 435.000/436.395/437.385
RS-15 27 May 21:02:45 21:09:34 16° 258° (WSW) 21:15:19 29.354- 29.394
CINEMA 3 27 May 21:04:23 21:09:17 68° 76° (ENE) 21:14:19 145.822/145.860
FUNcube-1 27 May 21:09:01 21:12:26 22° 71° (ENE) 21:15:58 145.935
Cosmos 2504 27 May 21:09:56 21:17:02 62° 81° (E) 21:24:13 435.465 / 435.565
M-CUBED/EXP-1 PRIME 27 May 21:15:03 21:16:44 13° 294° (WNW) 21:18:17 437.505
DELFI C3 27 May 21:19:56 21:23:34 34° 74° (ENE) 21:27:14 145.870
AUBIESAT-1 27 May 21:22:34 21:24:05 12° 294° (WNW) 21:25:28 437.475
HO-68 27 May 21:29:46 21:36:29 40° 262° (W) 21:43:07 435.675
DOVE 4 27 May 21:33:08 21:37:36 30° 265° (W) 21:42:11 437.250
HUMSAT D 27 May 21:37:30 21:40:32 19° 71° (ENE) 21:43:40 437.325/437.525
CANX-2 27 May 21:47:09 21:49:48 15° 268° (W) 21:52:17 2200.000
ZACube-1 27 May 21:48:40 21:53:12 63° 77° (ENE) 21:57:45 437.345
UKube-1 27 May 21:49:47 21:53:23 27° 71° (ENE) 21:57:03 .
CUTE 1.7 + AOD 2 27 May 21:50:31 21:53:13 16° 268° (W) 21:55:43 437.475
CUBEBUG 2 27 May 21:50:32 21:55:18 77° 259° (W) 22:00:06 437.445
DX 1 27 May 21:59:22 22:03:22 38° 73° (ENE) 22:07:25 434.975-435.025
Oscar 11 27 May 21:59:39 22:03:52 50° 261° (W) 22:08:06 145.826/435.025
UNISAT 6 27 May 22:08:57 22:09:56 11° 90° (E) 22:11:13 437.425
SEEDS 27 May 22:13:49 22:14:38 10° 270° (W) 22:15:09 437.485
CUBEBUG 1 27 May 22:14:58 22:16:44 13° 68° (ENE) 22:18:44 437.445
VELOX 1 27 May 22:17:08 22:20:54 28° 72° (ENE) 22:24:45 145.980
50 SAT 27 May 22:21:03 22:24:38 32° 74° (ENE) 22:28:14 437.505
ESTCUBE 1 27 May 22:24:07 22:27:16 20° 70° (ENE) 22:30:33 437.505/2401.250
UWE-3 27 May 22:36:54 22:40:59 29° 265° (W) 22:45:00 435.000/436.395/437.385
QB50P2 27 May 22:39:54 22:40:54 11° 90° (E) 22:42:12 145.880/145.840
FUNcube-1 27 May 22:44:32 22:48:36 30° 264° (W) 22:52:36 145.935
CINEMA 3 27 May 22:45:36 22:47:02 11° 272° (W) 22:48:05 145.822/145.860
AISAT 27 May 22:48:21 22:52:46 70° 76° (ENE) 22:57:14 437.250
ANTELSAT 27 May 22:49:46 22:53:46 36° 97° (E) 22:57:43 437.575/2403.000
POPSAT HIP 1 27 May 22:50:44 22:53:06 15° 92° (E) 22:55:39 437.405
DUCHIFAT 1 27 May 22:51:54 22:54:16 15° 92° (E) 22:56:50 145.980
ISS 27 May 22:52:08 22:55:20 67° 317° (NW) 22:58:35 145.825
DELFI C3 27 May 22:56:38 22:58:50 14° 268° (W) 23:00:50 145.870
GONETS M04 27 May 23:01:19 23:07:01 20° 67° (ENE) 23:13:09
Cosmos 2504 27 May 23:05:11 23:09:52 18° 275° (W) 23:14:11 435.465 / 435.565
BUGSAT 1 27 May 23:10:38 23:13:22 17° 93° (E) 23:16:15 437.445
HUMSAT D 27 May 23:12:16 23:16:06 29° 264° (W) 23:19:51 437.325/437.525
DANDE 27 May 23:16:45 23:22:34 25° 66° (ENE) 23:27:36 436.750
TIGRISAT 27 May 23:21:55 23:26:17 88° 102° (ESE) 23:30:32 435.000
UKube-1 27 May 23:26:10 23:29:30 21° 265° (W) 23:32:44 .
QB50P1 27 May 23:33:13 23:37:24 51° 99° (E) 23:41:32 145.935-145.965
POLYITAN 1 27 May 23:35:44 23:39:56 56° 100° (E) 23:44:06 437.675
DX 1 27 May 23:37:12 23:39:47 15° 267° (W) 23:42:12 434.975-435.025
CUSAT 1 27 May 23:41:32 23:48:09 48° 74° (ENE) 23:53:14 437.405
UNISAT 6 27 May 23:42:54 23:47:07 48° 285° (WNW) 23:51:14 437.425
CUBEBUG 1 27 May 23:48:31 23:52:42 48° 261° (W) 23:56:57 437.445
VELOX 1 27 May 23:54:05 23:57:28 21° 266° (W) 00:00:45 145.980
50 SAT 27 May 23:57:09 23:59:27 14° 267° (W) 00:01:35 437.505
ESTCUBE 1 27 May 23:59:57 00:03:57 31° 263° (W) 00:07:55 437.505/2401.250
NANOSAT C BR1 28 May 00:04:10 00:08:25 65° 284° (WNW) 00:12:36 145.865
QB50P2 28 May 00:13:00 00:17:08 48° 285° (WNW) 00:21:14 145.880/145.840
VERMONT LUNAR 28 May 00:13:58 00:16:44 27° 147° (SSE) 00:19:32 437.305
SPROUT 28 May 00:23:26 00:27:45 76° 258° (WSW) 00:32:06 437.525
POPSAT HIP 1 28 May 00:25:12 00:29:08 35° 287° (WNW) 00:33:00 437.405
PCSat 28 May 00:25:25 00:30:46 73° 115° (ESE) 00:36:12 145.827
DUCHIFAT 1 28 May 00:26:21 00:30:15 35° 287° (WNW) 00:34:05 145.980
ANTELSAT 28 May 00:27:35 00:30:18 16° 291° (WNW) 00:32:46 437.575/2403.000
ITUPSAT 1 28 May 00:28:46 00:30:36 13° 67° (ENE) 00:32:44 437.325
BEESAT 28 May 00:35:00 00:37:36 15° 68° (ENE) 00:40:26 436.000
SWISSCUBE 28 May 00:42:49 00:46:12 20° 69° (ENE) 00:49:44 437.505
TISAT 1 28 May 00:43:02 00:47:13 60° 259° (W) 00:51:26 437.305
BUGSAT 1 28 May 00:45:07 00:48:56 31° 287° (WNW) 00:52:39 437.445
PHONESAT 2.4 28 May 00:55:11 00:57:14 15° 143° (SE) 00:59:22 2401.200-2431.200
GONETS M04 28 May 00:56:07 01:04:54 75° 266° (W) 01:13:33
DANDE 28 May 00:59:14 01:06:21 48° 270° (W) 01:11:49 436.750
Oscar 19 28 May 01:09:37 01:12:56 18° 92° (E) 01:16:27 437.125/150
QB50P1 28 May 01:11:23 01:12:51 11° 292° (WNW) 01:14:04 145.935-145.965
POLYITAN 1 28 May 01:14:35 01:15:24 10° 293° (WNW) 01:15:57 437.675
O/OREOS (USA 219) 28 May 01:20:51 01:25:10 48° 67° (ENE) 01:29:30 437.305
CUSAT 1 28 May 01:25:31 01:30:05 19° 277° (W) 01:33:44 437.405
Cosmos 2499 28 May 01:36:28 01:42:41 34° 75° (ENE) 01:49:09 435.465 / 435.565
VERMONT LUNAR 28 May 01:50:41 01:53:50 49° 340° (NNW) 01:56:58 437.305
KKS-1 28 May 01:58:30 02:01:37 19° 70° (ENE) 02:04:53 437.445
ITUPSAT 1 28 May 02:03:23 02:08:04 58° 259° (W) 02:12:46 437.325
Gurwin Techsat 1B 28 May 02:09:29 02:13:03 19° 93° (E) 02:16:50 435.225
BEESAT 2 28 May 02:10:24 02:12:59 16° 50° (NE) 02:15:38 435.950
BEESAT 28 May 02:10:32 02:15:06 47° 261° (W) 02:19:41 436.000
PCSat 28 May 02:11:46 02:14:51 15° 312° (NW) 02:17:42 145.827
